TimeCST,TemperatureF,Dew PointF,Humidity,Sea Level PressureIn,VisibilityMPH,Wind Direction,Wind SpeedMPH,Gust SpeedMPH,PrecipitationIn,Events,Conditions,WindDirDegrees,DateUTC
12:15 AM,21.0,13.6,73,29.73,10.0,WNW,26.5,34.5,N/A,,Mostly Cloudy,290,2013-01-12 06:15:00
12:35 AM,20.8,14.5,77,29.74,7.0,West,25.3,31.1,N/A,Snow,Light Snow,280,2013-01-12 06:35:00
12:55 AM,20.1,13.1,74,29.76,10.0,WNW,20.7,28.8,N/A,Snow,Light Snow,290,2013-01-12 06:55:00
1:15 AM,19.8,12.2,72,29.77,10.0,WNW,23.0,31.1,N/A,,Mostly Cloudy,300,2013-01-12 07:15:00
1:35 AM,19.8,11.3,70,29.79,10.0,WNW,26.5,36.8,N/A,,Scattered Clouds,290,2013-01-12 07:35:00
1:55 AM,19.2,11.3,71,29.81,10.0,WNW,19.6,32.2,N/A,,Scattered Clouds,290,2013-01-12 07:55:00
2:15 AM,18.9,11.8,74,29.81,10.0,WNW,17.3,33.4,N/A,,Scattered Clouds,300,2013-01-12 08:15:00
2:35 AM,19.0,12.9,77,29.83,10.0,WNW,21.9,29.9,N/A,,Mostly Cloudy,290,2013-01-12 08:35:00
2:55 AM,19.4,12.4,74,29.83,10.0,WNW,21.9,31.1,N/A,,Mostly Cloudy,300,2013-01-12 08:55:00
3:15 AM,19.0,11.7,73,29.85,10.0,WNW,19.6,29.9,N/A,,Scattered Clouds,290,2013-01-12 09:15:00
3:35 AM,18.5,10.2,70,29.85,10.0,WNW,23.0,32.2,N/A,,Clear,300,2013-01-12 09:35:00
3:55 AM,18.3,11.3,74,29.86,10.0,WNW,21.9,28.8,N/A,Snow,Light Snow,290,2013-01-12 09:55:00
4:15 AM,17.6,10.9,75,29.86,10.0,WNW,18.4,25.3,N/A,,Clear,290,2013-01-12 10:15:00
4:35 AM,16.7,8.8,71,29.88,10.0,WNW,25.3,33.4,N/A,,Clear,300,2013-01-12 10:35:00
4:55 AM,16.5,9.0,72,29.90,10.0,WNW,17.3,23.0,N/A,,Clear,290,2013-01-12 10:55:00
5:15 AM,15.8,8.1,72,29.90,10.0,WNW,23.0,31.1,N/A,,Clear,300,2013-01-12 11:15:00
5:35 AM,15.6,7.9,72,29.91,10.0,WNW,15.0,21.9,N/A,,Clear,300,2013-01-12 11:35:00
5:55 AM,15.4,7.7,71,29.91,10.0,WNW,15.0,26.5,N/A,,Clear,300,2013-01-12 11:55:00
6:15 AM,15.1,8.1,74,29.93,10.0,WNW,12.7,-,N/A,,Clear,290,2013-01-12 12:15:00
6:35 AM,14.9,7.5,73,29.95,10.0,West,15.0,-,N/A,,Clear,280,2013-01-12 12:35:00
6:55 AM,14.5,6.8,71,29.94,10.0,WNW,20.7,24.2,N/A,,Clear,300,2013-01-12 12:55:00
7:15 AM,14.4,6.3,70,29.96,10.0,WNW,13.8,-,N/A,,Clear,290,2013-01-12 13:15:00
7:35 AM,14.0,6.8,73,29.98,10.0,West,15.0,19.6,N/A,,Clear,280,2013-01-12 13:35:00
7:55 AM,14.0,7.2,74,30.00,10.0,West,11.5,16.1,N/A,,Clear,280,2013-01-12 13:55:00
8:15 AM,13.6,6.8,74,29.99,10.0,WNW,16.1,20.7,N/A,,Clear,290,2013-01-12 14:15:00
8:35 AM,14.0,6.1,71,29.98,10.0,WNW,23.0,28.8,N/A,,Clear,290,2013-01-12 14:35:00
8:55 AM,14.4,6.1,70,29.99,10.0,WNW,18.4,24.2,N/A,,Clear,290,2013-01-12 14:55:00
9:15 AM,14.5,5.9,69,30.02,10.0,WNW,17.3,24.2,N/A,,Clear,290,2013-01-12 15:15:00
9:35 AM,14.9,6.1,68,30.01,10.0,WNW,18.4,25.3,N/A,,Clear,300,2013-01-12 15:35:00
9:55 AM,15.4,6.4,68,30.03,10.0,WNW,19.6,25.3,N/A,,Scattered Clouds,290,2013-01-12 15:55:00
10:15 AM,15.4,6.1,67,30.04,10.0,WNW,18.4,24.2,N/A,,Scattered Clouds,300,2013-01-12 16:15:00
10:35 AM,15.8,6.6,67,30.06,10.0,NW,15.0,23.0,N/A,,Scattered Clouds,310,2013-01-12 16:35:00
10:55 AM,15.8,6.4,67,30.07,10.0,WNW,17.3,20.7,N/A,,Mostly Cloudy,290,2013-01-12 16:55:00
11:15 AM,16.3,7.0,67,30.06,10.0,WNW,16.1,23.0,N/A,,Overcast,290,2013-01-12 17:15:00
11:55 AM,16.9,6.4,64,30.06,10.0,West,15.0,-,N/A,,Mostly Cloudy,280,2013-01-12 17:55:00
12:15 PM,16.5,6.1,64,30.06,10.0,NW,15.0,23.0,N/A,,Overcast,310,2013-01-12 18:15:00
12:35 PM,16.5,6.8,66,30.06,7.0,WNW,16.1,19.6,N/A,,Overcast,300,2013-01-12 18:35:00
12:55 PM,16.2,8.2,71,30.04,5.0,NW,15.0,19.6,N/A,,Haze,310,2013-01-12 18:55:00
1:35 PM,16.7,6.1,63,30.03,10.0,WNW,15.0,-,N/A,,Overcast,300,2013-01-12 19:35:00
1:55 PM,16.2,9.1,74,30.01,3.0,NW,15.0,-,N/A,Snow,Light Snow,320,2013-01-12 19:55:00
2:15 PM,15.8,9.0,74,30.05,4.0,NW,12.7,-,N/A,Snow,Light Snow,320,2013-01-12 20:15:00
2:35 PM,16.3,9.1,73,30.06,7.0,NW,11.5,-,N/A,,Overcast,310,2013-01-12 20:35:00
2:55 PM,16.2,7.3,68,30.06,7.0,NW,13.8,-,N/A,,Overcast,310,2013-01-12 20:55:00
3:15 PM,16.2,5.9,64,30.05,10.0,WNW,18.4,21.9,N/A,,Mostly Cloudy,300,2013-01-12 21:15:00
3:35 PM,16.3,6.3,65,30.06,10.0,NW,17.3,23.0,N/A,,Scattered Clouds,310,2013-01-12 21:35:00
3:55 PM,15.3,7.5,71,30.06,10.0,NW,12.7,20.7,N/A,,Scattered Clouds,310,2013-01-12 21:55:00
4:15 PM,14.9,7.2,71,30.06,10.0,NW,17.3,-,N/A,,Clear,310,2013-01-12 22:15:00
4:35 PM,14.9,6.8,70,30.06,10.0,NW,15.0,20.7,N/A,,Clear,310,2013-01-12 22:35:00
4:55 PM,14.4,5.5,68,30.05,10.0,NW,17.3,24.2,N/A,,Scattered Clouds,320,2013-01-12 22:55:00
5:15 PM,13.6,5.0,68,30.07,10.0,NW,17.3,24.2,N/A,,Clear,320,2013-01-12 23:15:00
5:35 PM,13.6,4.8,68,30.08,10.0,NW,13.8,-,N/A,,Clear,320,2013-01-12 23:35:00
5:55 PM,13.1,5.2,71,30.09,10.0,NW,12.7,20.7,N/A,,Clear,310,2013-01-12 23:55:00
6:15 PM,13.1,6.8,76,30.09,10.0,NW,11.5,19.6,N/A,,Clear,320,2013-01-13 00:15:00
6:35 PM,13.1,6.6,75,30.08,10.0,NW,12.7,-,N/A,,Scattered Clouds,320,2013-01-13 00:35:00
6:55 PM,12.2,5.0,73,30.10,10.0,NW,11.5,18.4,N/A,,Scattered Clouds,320,2013-01-13 00:55:00
7:15 PM,11.7,4.1,72,30.12,10.0,NW,12.7,18.4,N/A,,Scattered Clouds,320,2013-01-13 01:15:00
7:35 PM,11.1,3.9,73,30.11,10.0,NW,10.4,-,N/A,,Clear,320,2013-01-13 01:35:00
7:55 PM,10.8,3.4,72,30.12,10.0,NW,12.7,18.4,N/A,,Clear,320,2013-01-13 01:55:00
8:15 PM,10.2,3.9,76,30.12,10.0,NW,10.4,-,N/A,,Clear,320,2013-01-13 02:15:00
8:35 PM,10.2,4.1,76,30.12,10.0,NW,10.4,-,N/A,,Clear,320,2013-01-13 02:35:00
8:55 PM,9.9,3.4,75,30.12,10.0,NNW,13.8,-,N/A,,Clear,330,2013-01-13 02:55:00
9:15 PM,9.7,3.4,76,30.12,10.0,NW,11.5,17.3,N/A,,Clear,320,2013-01-13 03:15:00
9:35 PM,9.3,3.7,78,30.12,10.0,NW,10.4,-,N/A,,Clear,320,2013-01-13 03:35:00
9:55 PM,9.3,3.6,77,30.12,10.0,NNW,10.4,-,N/A,,Clear,330,2013-01-13 03:55:00
10:15 PM,9.1,3.4,77,30.12,10.0,NNW,13.8,-,N/A,,Clear,330,2013-01-13 04:15:00
10:35 PM,8.8,2.7,76,30.11,10.0,NNW,12.7,-,N/A,,Clear,340,2013-01-13 04:35:00
10:55 PM,8.6,3.0,78,30.12,10.0,NNW,9.2,-,N/A,,Clear,340,2013-01-13 04:55:00
11:15 PM,8.4,2.8,78,30.10,10.0,NNW,8.1,-,N/A,,Clear,330,2013-01-13 05:15:00
11:35 PM,8.2,2.8,79,30.10,10.0,NNW,6.9,-,N/A,,Mostly Cloudy,330,2013-01-13 05:35:00
11:55 PM,8.6,3.7,81,30.11,10.0,NNW,6.9,-,N/A,,Overcast,330,2013-01-13 05:55:00